Date,TemperatureHighF,TemperatureAvgF,TemperatureLowF,DewpointHighF,DewpointAvgF,DewpointLowF,HumidityHigh,HumidityAvg,HumidityLow,PressureMaxIn,PressureMinIn,WindSpeedMaxMPH,WindSpeedAvgMPH,GustSpeedMaxMPH,PrecipitationSumIn
2013-1-1,34.9,32.3,28.4,31.0,29.2,23.9,94,88,82,30.07,29.96,12,1,12,0.03
2013-1-2,30.8,24.2,17.3,24.2,18.0,14.7,90,78,57,30.27,30.04,12,2,12,0.07
2013-1-3,37.2,23.6,11.7,23.9,17.4,9.5,92,79,57,30.31,30.17,16,1,16,0.19
2013-1-4,33.1,29.7,27.6,24.4,23.1,21.5,81,76,67,30.28,30.18,18,3,18,0.00
2013-1-5,40.2,31.4,27.9,27.6,24.5,21.9,88,76,57,30.43,30.20,14,2,14,0.20
2013-1-6,39.3,35.2,30.6,32.8,29.8,27.2,94,81,69,30.22,30.04,11,1,11,0.12
2013-1-7,37.1,30.5,17.7,32.0,25.6,15.7,93,82,66,30.49,30.22,12,1,12,0.04
2013-1-8,49.4,26.3,16.1,33.2,22.3,14.2,95,86,51,30.47,30.36,8,0,9,0.04
2013-1-9,46.1,32.6,20.2,43.4,30.1,18.7,97,91,78,30.51,30.29,13,1,13,0.03
2013-1-10,47.8,35.1,24.7,34.5,30.1,23.4,97,84,45,30.65,30.41,4,0,7,0.01
2013-1-11,42.2,37.4,33.3,41.4,36.2,31.6,98,96,91,30.41,30.07,4,0,4,0.22
2013-1-12,56.4,41.4,35.3,50.2,40.1,35.0,99,96,78,30.16,30.05,3,0,3,0.01
2013-1-13,68.3,47.6,37.0,56.7,44.8,36.5,99,91,64,30.07,29.90,18,1,19,0.05
2013-1-14,52.6,42.2,34.5,52.3,37.6,30.5,99,84,69,30.35,29.92,27,2,27,0.08
2013-1-15,38.6,35.0,33.1,33.3,31.4,28.5,96,87,72,30.37,30.11,10,1,10,0.35
2013-1-16,38.0,35.4,33.3,36.3,33.8,31.0,98,94,81,30.12,29.91,10,1,14,0.29
2013-1-17,36.0,34.2,32.3,31.4,29.3,27.7,90,82,75,30.20,30.04,11,2,11,0.02
2013-1-18,34.0,28.2,21.6,28.0,17.7,10.0,86,65,46,30.53,30.16,25,4,25,0.00
2013-1-19,54.2,37.3,20.6,29.3,21.9,18.3,94,61,27,30.35,29.91,16,3,25,0.01
2013-1-20,47.7,39.3,25.9,32.4,21.5,13.3,65,50,32,30.12,29.83,31,6,33,0.00
2013-1-21,33.7,25.2,15.6,23.0,16.2,6.9,88,69,47,30.11,29.90,24,4,24,0.00
2013-1-22,15.6,11.5,8.1,8.9,3.1,-0.7,81,69,53,30.34,30.07,19,4,19,0.00
2013-1-23,17.7,13.2,7.6,13.0,4.3,0.2,89,68,51,30.39,30.13,16,2,16,0.00
2013-1-24,22.3,15.0,3.8,13.6,9.1,0.6,89,78,54,30.60,30.11,13,2,17,0.02
2013-1-25,23.6,14.7,4.9,20.2,11.1,2.1,90,86,74,30.60,30.10,13,0,13,0.00
2013-1-26,28.8,25.0,21.8,23.8,20.1,16.9,90,82,72,30.48,30.14,14,2,15,0.00
2013-1-27,38.7,24.4,6.6,25.6,17.8,4.0,92,77,48,30.61,30.41,5,0,5,0.29
2013-1-28,52.5,40.4,30.2,50.2,38.1,25.4,98,92,81,30.42,30.07,21,2,22,0.42
2013-1-29,67.5,50.5,39.8,56.2,47.4,38.9,99,90,63,30.10,29.88,15,1,16,0.02
2013-1-30,71.1,47.2,36.3,59.9,45.9,35.8,99,96,61,29.88,29.28,31,1,31,0.76
2013-1-31,50.0,30.7,24.5,47.7,23.4,12.4,93,74,58,29.90,29.25,34,7,34,0.11
2013-2-1,25.7,17.3,13.1,21.8,11.3,5.5,92,77,66,30.41,29.83,19,4,21,0.00
2013-2-3,29.6,25.5,19.5,25.6,21.7,13.9,92,85,77,30.06,29.84,8,2,22,0.00
2013-2-4,33.6,24.3,18.9,31.4,19.7,13.1,96,83,63,30.13,29.89,8,2,15,0.00
2013-2-5,38.0,33.8,31.2,34.9,31.4,27.6,97,91,73,29.97,29.83,17,1,17,0.01
2013-2-6,32.9,29.1,16.1,30.4,25.5,14.2,97,86,74,30.38,29.95,11,1,11,0.00
2013-2-7,40.1,26.5,14.2,31.7,22.3,12.1,94,85,67,30.40,30.11,11,0,11,0.11
2013-2-8,39.0,33.7,26.2,37.2,29.9,22.3,95,86,80,30.15,29.83,29,4,29,0.16
2013-2-9,33.9,25.5,13.9,22.9,19.7,11.7,92,79,57,30.46,30.14,23,3,28,0.03
2013-2-10,47.1,25.8,8.1,31.8,18.6,5.7,92,77,41,30.46,30.11,10,0,10,0.03
2013-2-11,62.0,44.5,33.6,48.6,33.7,25.3,98,72,28,30.11,29.71,28,4,31,0.16
2013-2-12,49.1,39.3,27.0,30.2,27.3,24.3,92,63,42,30.04,29.86,22,4,23,0.00
2013-2-13,43.6,32.3,23.3,33.4,28.4,21.8,96,86,55,29.97,29.67,11,1,11,0.04
2013-2-14,42.9,34.8,30.1,34.5,29.3,25.6,96,81,62,30.01,29.87,17,2,17,0.08
2013-2-15,44.1,35.9,31.7,35.3,31.5,28.3,98,85,55,30.06,29.96,15,2,15,0.01
2013-2-16,32.4,27.1,19.8,28.9,20.2,14.9,87,75,61,30.05,29.94,12,3,12,0.01
2013-2-17,23.0,19.8,16.6,19.6,14.0,8.3,89,78,63,30.31,29.94,18,4,18,0.00
2013-2-18,48.2,24.9,3.2,31.6,16.0,0.4,94,72,35,30.41,30.05,9,0,9,0.04
2013-2-19,45.7,34.0,24.5,40.3,30.2,20.6,96,86,67,30.05,29.68,24,3,25,0.23
2013-2-20,26.5,22.0,19.8,21.6,15.5,12.3,88,76,65,30.26,29.96,20,4,21,0.00
2013-2-21,26.2,21.8,17.7,18.5,15.4,12.4,89,76,70,30.40,30.22,14,3,15,0.01
2013-2-22,33.2,28.4,18.4,30.3,24.5,15.1,93,85,65,30.36,30.10,14,1,14,0.02
2013-2-23,54.0,36.4,28.5,42.9,32.8,27.0,96,87,59,30.10,29.84,12,0,12,0.01
2013-2-24,33.9,31.1,27.7,32.2,26.1,21.5,97,82,72,30.18,29.86,20,2,20,0.00
2013-2-25,46.7,33.1,25.1,27.5,24.3,22.2,91,72,41,30.26,30.12,10,1,10,0.00
2013-2-26,39.5,35.0,27.5,35.8,29.1,22.8,92,79,60,30.14,29.65,25,2,25,0.31
2013-2-27,42.7,37.9,33.8,38.3,35.3,32.3,98,90,76,29.72,29.61,15,2,15,0.28
2013-2-28,34.9,33.8,32.8,32.6,30.6,28.9,95,88,84,29.82,29.66,16,3,16,0.09
2013-3-1,33.9,31.2,27.7,30.7,27.1,23.2,89,85,77,29.98,29.81,14,4,14,0.05
2013-3-2,29.7,26.9,25.0,24.2,22.5,20.3,90,83,76,29.98,29.92,14,3,14,0.02
2013-3-3,28.5,26.1,23.7,22.9,20.9,18.5,87,81,70,30.04,29.93,17,4,17,0.01
2013-3-4,37.1,27.4,22.1,23.1,19.6,15.7,90,73,51,30.16,30.03,18,3,21,0.01
2013-3-5,50.7,33.0,18.4,30.3,20.5,13.6,93,66,25,30.14,29.72,24,2,25,0.01
2013-3-6,41.7,35.2,31.2,33.7,30.8,29.0,96,84,65,30.12,29.72,15,2,16,0.38
2013-3-7,39.6,35.7,33.7,31.3,30.2,29.0,89,80,67,30.28,30.11,16,3,16,0.03
2013-3-8,36.4,32.2,24.8,29.1,27.1,23.0,93,81,73,30.43,30.27,18,4,18,0.01
2013-3-9,58.2,34.9,21.8,34.8,26.1,20.2,95,76,24,30.46,30.26,7,1,7,0.00
2013-3-10,66.8,44.6,27.4,37.1,31.8,25.3,94,67,29,30.28,30.07,11,1,11,0.00
2013-3-11,58.2,48.7,39.8,48.7,39.2,32.0,86,71,39,30.09,29.78,21,1,24,0.04
2013-3-12,53.1,41.1,36.7,48.8,36.9,28.1,97,85,70,30.02,29.75,15,3,16,0.37
2013-3-13,38.5,32.9,27.8,30.8,27.1,19.9,92,79,57,30.14,29.95,20,4,20,0.04
2013-3-14,39.4,30.7,25.4,24.8,20.4,16.0,82,66,46,30.24,30.14,24,5,24,0.00
2013-3-15,51.5,37.8,23.1,36.8,28.0,20.6,91,69,51,30.17,29.83,20,2,20,0.00
2013-3-16,47.8,42.6,37.6,45.8,40.1,34.9,97,91,70,29.93,29.61,20,2,20,0.03
2013-3-17,39.9,35.6,31.0,35.1,27.8,23.9,92,74,58,30.21,29.93,12,3,13,0.00
2013-3-18,36.0,33.6,30.6,32.8,29.4,25.1,94,85,68,30.20,29.82,15,2,15,0.16
2013-3-19,46.9,38.6,33.5,36.0,27.1,14.8,98,67,29,29.99,29.77,26,5,29,0.47
2013-3-20,41.7,34.1,28.3,27.1,19.5,16.1,83,56,40,30.00,29.81,28,4,28,0.00
2013-3-21,28.6,24.9,20.3,22.1,15.4,10.5,87,68,51,29.97,29.85,20,4,20,0.01
2013-3-22,38.9,29.7,24.1,22.8,19.9,17.8,85,67,49,30.06,29.94,17,4,17,0.01
2013-3-23,47.6,32.1,18.2,27.0,22.3,16.3,94,71,38,30.08,30.00,17,2,18,0.00
2013-3-24,39.3,31.2,23.8,30.3,25.2,21.5,93,80,53,30.03,29.59,18,1,18,0.00
2013-3-25,38.1,33.8,30.7,33.5,31.1,28.0,96,90,80,29.75,29.51,10,1,12,0.49
2013-3-26,41.2,36.0,32.5,32.2,30.8,28.6,94,82,64,30.10,29.75,17,3,17,0.15
2013-3-27,41.4,36.4,31.9,31.5,28.8,25.8,93,75,56,30.19,30.08,19,4,19,0.12
2013-3-28,40.9,36.7,33.0,32.6,30.6,28.2,90,79,66,30.29,30.15,13,2,14,0.03
2013-3-29,52.2,40.5,33.0,35.5,30.7,25.1,94,72,37,30.30,30.17,15,1,16,0.00
2013-3-30,55.2,39.5,25.7,32.7,27.5,19.0,96,68,26,30.28,30.09,11,1,11,0.00
2013-3-31,48.5,39.5,31.7,46.4,37.0,28.3,97,91,83,30.09,29.75,9,0,10,0.20
2013-4-1,47.1,41.5,34.8,42.8,32.2,16.5,97,72,40,30.01,29.74,19,5,21,0.04
2013-4-2,41.4,33.9,27.8,21.0,17.5,13.9,68,52,35,30.22,30.00,18,4,20,0.00
2013-4-3,43.1,32.0,22.8,22.3,17.9,11.2,88,59,32,30.44,30.21,26,4,26,0.00
2013-4-4,51.4,34.6,17.4,30.5,19.6,14.1,91,60,27,30.44,30.03,14,1,14,0.00
2013-4-5,56.0,42.8,27.3,33.6,27.4,21.8,92,58,35,30.16,29.93,26,4,26,0.00
2013-4-6,59.7,42.8,24.1,28.3,21.5,11.9,91,50,20,30.31,30.11,13,1,14,0.00
2013-4-7,71.3,55.1,38.6,52.9,40.2,28.4,95,61,37,30.11,29.90,24,3,24,0.11
2013-4-8,74.4,58.8,46.1,55.6,47.9,45.4,99,73,38,30.07,29.90,16,1,17,0.01
2013-4-9,80.2,62.5,47.6,57.6,51.3,45.2,93,71,41,30.09,29.92,16,2,17,0.00
2013-4-10,83.2,69.3,50.1,60.2,55.3,47.9,93,64,40,29.96,29.77,29,4,29,0.03
2013-4-11,80.5,65.1,51.4,61.7,55.7,50.5,98,75,40,29.87,29.60,17,1,17,0.00
2013-4-12,67.1,60.0,47.6,60.6,51.7,37.0,98,76,42,29.81,29.51,23,3,23,0.66
2013-4-13,60.5,49.1,39.6,38.0,34.5,30.3,83,59,36,30.00,29.81,18,4,20,0.00
2013-4-14,66.8,49.7,32.6,45.1,35.9,28.8,90,63,34,30.17,30.00,11,1,12,0.00
2013-4-15,62.6,57.7,51.8,51.3,47.2,41.8,76,68,60,30.15,30.03,19,2,19,0.00
2013-4-16,81.1,64.9,47.7,60.1,54.2,45.8,96,71,44,30.19,30.01,14,2,23,0.51
2013-4-17,70.4,61.6,55.7,61.1,57.8,55.1,99,88,70,30.19,30.10,12,1,12,0.01
2013-4-18,83.5,69.6,59.0,65.2,59.0,55.8,92,71,43,30.14,29.81,22,2,22,0.00
2013-4-19,75.2,60.0,46.1,61.8,52.3,35.9,89,76,55,29.82,29.48,17,2,26,0.22
2013-4-20,51.4,42.8,33.1,37.4,29.7,24.7,85,61,39,30.39,29.82,25,5,25,0.02
2013-4-21,57.1,40.7,25.3,28.8,25.2,18.3,95,60,23,30.60,30.39,14,2,14,0.00
2013-4-22,60.6,48.5,36.2,33.7,29.2,22.8,79,49,26,30.52,30.31,16,2,17,0.00
2013-4-23,72.2,52.1,32.3,44.6,37.2,30.2,95,62,25,30.34,30.03,10,1,11,0.00
2013-4-24,76.2,52.8,38.6,59.6,45.7,36.0,97,79,46,30.15,29.72,27,3,33,0.16
2013-4-25,59.4,46.9,36.4,37.5,33.1,27.4,87,62,30,30.35,30.15,18,3,18,0.05
2013-4-26,62.5,48.7,35.4,39.1,35.2,30.6,95,64,32,30.48,30.35,12,1,13,0.00
2013-4-27,72.8,52.8,31.4,44.6,37.5,29.7,96,63,26,30.42,30.19,15,1,15,0.00
2013-4-28,57.8,50.9,40.8,52.9,46.9,39.1,95,87,68,30.21,30.01,15,1,15,0.27
2013-4-29,65.1,55.8,47.6,56.9,52.0,46.5,97,87,73,30.04,29.96,10,1,11,0.03
2013-4-30,69.2,60.0,53.9,57.7,52.9,50.1,96,78,59,30.22,30.04,16,2,16,0.00
2013-5-1,74.0,62.2,52.5,54.2,46.0,34.4,89,59,28,30.33,30.21,15,2,16,0.00
2013-5-2,74.3,58.5,39.5,44.6,39.9,28.0,95,56,20,30.36,30.22,19,1,19,0.00
2013-5-3,71.5,56.5,39.0,50.7,43.1,32.5,97,64,34,30.29,30.18,19,2,19,0.00
2013-5-4,69.7,56.2,42.0,48.2,41.9,35.3,86,60,40,30.24,30.09,20,2,20,0.00
2013-5-5,69.7,56.0,41.0,44.6,37.8,26.0,95,57,22,30.15,30.03,20,3,21,0.00
2013-5-6,66.3,56.2,47.2,56.3,49.1,39.7,93,77,66,30.11,30.01,18,2,21,0.01
2013-5-7,63.5,59.5,57.5,58.7,55.5,52.9,95,87,74,30.01,29.91,15,1,15,0.36
2013-5-8,71.7,58.8,49.2,56.2,51.5,46.4,99,80,41,29.98,29.87,13,1,13,0.50
2013-5-9,70.3,59.0,51.5,62.3,55.6,50.9,99,89,63,30.01,29.90,9,1,14,0.14
2013-5-10,78.5,61.1,50.6,63.8,56.0,50.0,99,86,50,30.03,29.82,32,1,32,0.26
2013-5-11,60.8,60.1,59.3,59.9,59.1,58.3,98,97,95,29.82,29.75,10,0,10,0.35
2013-5-12,54.0,48.8,44.1,48.7,35.5,29.0,90,62,42,30.05,29.80,19,4,25,0.03
2013-5-13,52.2,44.4,33.6,34.1,29.7,25.3,91,58,36,30.20,30.04,16,4,22,0.00
2013-5-14,63.5,47.3,31.2,46.1,36.0,29.4,96,69,37,30.24,29.98,8,1,16,0.00
2013-5-15,85.9,67.6,46.7,63.2,54.4,44.2,95,66,41,29.98,29.70,19,3,26,0.00
2013-5-16,76.6,67.2,56.9,63.8,59.6,55.0,96,78,48,29.96,29.75,16,2,21,0.33
2013-5-17,81.2,66.6,55.4,63.1,56.2,50.2,98,74,37,30.09,29.96,10,1,10,0.00
2013-5-18,80.5,64.0,49.9,66.6,57.6,48.8,98,81,55,30.13,30.02,14,1,14,0.00
2013-5-19,74.0,65.4,61.6,64.5,60.6,58.2,94,85,71,30.11,30.00,13,1,13,0.02
2013-5-20,87.0,71.1,57.1,69.0,62.9,56.3,99,78,47,30.05,29.89,12,1,12,0.00
2013-5-21,86.5,73.1,61.1,70.5,64.9,60.1,98,78,49,29.97,29.80,14,1,14,0.00
2013-5-22,86.5,70.7,61.1,68.8,62.9,59.9,98,79,48,29.88,29.75,19,1,19,0.08
2013-5-23,79.7,66.4,60.2,64.7,60.9,57.6,98,84,48,29.85,29.72,25,1,25,0.09
2013-5-24,60.2,46.8,41.2,58.5,41.2,32.6,95,81,57,30.27,29.79,22,5,22,0.12
2013-5-25,60.5,47.1,34.6,40.0,36.2,32.3,93,68,41,30.32,30.21,20,3,20,0.00
2013-5-26,66.4,50.0,33.4,43.4,37.7,32.1,98,68,35,30.30,30.20,16,2,16,0.00
2013-5-27,61.9,50.6,37.2,51.3,44.3,35.9,98,81,48,30.32,30.16,11,0,11,0.01
2013-5-28,81.8,62.8,51.7,69.1,57.9,50.2,98,86,52,30.17,30.00,19,1,20,0.15
2013-5-29,84.8,69.5,54.1,65.5,59.8,53.4,99,75,42,30.10,30.05,21,2,22,0.00
2013-5-30,89.3,71.6,56.0,70.6,61.9,54.8,99,76,38,30.18,30.05,10,1,10,0.00
2013-5-31,89.8,73.2,59.9,68.3,62.8,59.3,99,74,39,30.13,29.95,11,1,11,0.00
2013-6-1,88.8,73.4,61.4,70.4,64.6,60.2,97,77,44,30.01,29.83,17,1,17,0.01
2013-6-2,79.5,69.6,61.8,66.8,63.8,61.2,98,83,58,29.85,29.78,16,2,17,0.03
2013-6-3,68.9,62.9,51.8,62.9,58.9,50.1,98,87,69,30.02,29.83,12,2,12,0.02
2013-6-4,72.8,58.2,43.6,52.9,48.3,42.6,97,74,41,30.16,30.02,11,2,11,0.00
2013-6-5,81.2,63.3,45.7,64.3,54.8,44.6,98,76,49,30.16,29.95,14,1,14,0.00
2013-6-6,66.7,63.6,61.8,63.3,61.1,59.1,98,92,83,29.96,29.78,9,0,9,0.20
2013-6-7,68.2,63.6,60.7,66.7,62.6,59.6,99,97,94,29.80,29.68,12,1,12,0.12
2013-6-8,71.8,62.1,56.2,61.9,57.5,54.3,97,85,65,30.11,29.80,11,2,11,0.05
2013-6-9,81.3,68.2,55.5,68.2,61.7,54.6,98,81,57,30.17,30.01,14,1,14,0.01
2013-6-10,78.5,68.6,61.6,71.6,65.1,60.2,98,89,72,30.02,29.76,21,1,21,0.01
2013-6-11,76.8,67.4,62.0,67.5,63.4,61.0,97,87,67,29.87,29.77,13,2,13,0.01
2013-6-12,83.3,71.8,59.7,72.7,66.1,59.1,99,84,60,29.89,29.74,19,1,19,0.00
2013-6-13,73.8,67.1,62.3,69.3,63.8,57.3,98,89,75,29.74,29.52,24,3,24,0.01
2013-6-14,72.4,64.1,56.0,59.8,56.4,54.3,94,77,57,30.03,29.73,17,3,17,0.01
2013-6-15,78.7,64.4,52.3,59.4,53.7,48.2,98,73,38,30.12,30.00,13,2,13,0.00
2013-6-16,74.6,65.9,59.0,67.0,62.2,56.7,97,88,74,30.03,29.89,16,1,17,0.23
2013-6-17,81.8,70.8,63.1,69.3,64.7,62.1,99,83,55,29.95,29.86,11,1,11,0.22
2013-6-18,78.5,67.5,61.4,69.2,64.0,60.2,98,89,68,29.91,29.78,10,0,10,0.01
2013-6-19,78.8,67.5,57.8,64.0,58.9,55.1,97,76,46,30.12,29.89,7,0,7,0.00
2013-6-20,83.0,66.9,52.4,63.8,57.5,51.3,99,76,43,30.21,30.12,10,1,10,0.00
2013-6-21,87.3,70.4,56.2,67.3,60.8,54.9,99,76,36,30.25,30.13,10,1,10,0.00
2013-6-22,88.8,73.1,60.0,71.5,64.8,59.1,98,78,47,30.19,30.03,9,1,9,0.00
2013-6-23,88.5,73.5,62.3,73.4,66.3,61.6,99,80,49,30.15,30.01,18,1,18,0.00
2013-6-24,86.5,74.1,63.6,71.7,66.4,62.8,98,79,51,30.12,29.98,21,1,21,0.00
2013-6-25,88.5,74.3,62.9,70.4,66.4,62.3,99,79,51,30.04,29.86,18,2,33,0.36
2013-6-26,80.5,70.7,63.4,71.8,67.4,62.8,99,90,68,29.95,29.81,20,1,20,0.47
2013-6-27,73.3,68.3,65.0,69.9,67.0,64.3,99,96,85,29.81,29.62,13,1,15,0.76
2013-6-28,80.3,68.2,61.0,70.6,65.7,60.3,99,92,68,29.63,29.48,30,1,30,0.23
2013-6-29,80.3,69.0,60.0,66.3,62.8,59.4,99,82,58,29.68,29.53,14,2,15,0.19
2013-6-30,88.1,72.1,60.2,69.7,64.1,59.4,98,79,42,29.81,29.68,11,1,11,0.00
2013-7-1,82.8,71.7,66.3,72.1,67.6,64.9,98,88,61,29.91,29.78,8,1,8,0.07
2013-7-2,84.4,73.7,66.1,73.9,69.2,65.2,98,87,61,30.05,29.90,11,1,11,0.00
2013-7-3,87.5,71.6,65.2,74.8,68.0,64.6,99,90,56,30.16,30.05,13,0,13,0.67
2013-7-4,87.7,73.4,66.5,74.3,69.6,66.2,99,89,56,30.20,30.09,14,0,14,0.66
2013-7-5,87.0,75.6,66.9,74.6,69.9,66.3,99,84,55,30.15,30.06,11,1,12,0.04
2013-7-6,90.4,77.1,67.2,77.4,71.1,66.5,99,84,53,30.16,29.98,9,1,9,0.07
2013-7-7,82.5,72.2,68.4,71.9,69.0,65.9,98,90,66,30.08,29.98,21,1,23,0.35
2013-7-8,83.1,72.7,64.9,70.2,66.6,64.0,99,83,60,30.10,30.02,13,1,13,0.00
2013-7-9,82.0,72.7,67.1,74.1,69.5,66.4,99,90,74,30.08,29.95,14,1,14,0.84
2013-7-10,86.3,73.9,66.4,76.4,69.7,65.2,99,88,62,30.01,29.80,29,1,30,0.32
2013-7-11,77.7,69.5,64.8,69.1,65.4,63.3,98,87,66,29.96,29.84,10,1,10,0.00
2013-7-12,74.4,67.0,60.7,66.7,63.7,59.8,98,90,68,30.08,29.93,8,1,8,0.14
2013-7-13,81.3,71.6,62.9,70.5,66.9,62.3,99,86,65,30.22,30.06,10,0,10,0.00
2013-7-14,89.3,77.2,65.4,73.7,69.2,64.5,99,78,54,30.27,30.20,14,1,14,0.00
2013-7-15,89.7,75.9,64.6,75.5,68.9,64.0,99,81,52,30.32,30.19,8,1,8,0.00
2013-7-16,91.8,77.1,67.2,76.3,70.6,66.0,97,82,55,30.29,30.18,23,2,23,0.00
2013-7-18,92.0,82.0,74.0,77.1,74.5,72.2,94,79,53,30.03,29.99,6,0,6,0.00
2013-7-19,90.4,76.2,69.3,76.8,71.8,68.6,99,87,60,30.01,29.85,17,1,17,0.05
2013-7-20,76.8,72.2,66.8,73.2,69.5,65.8,97,91,84,29.90,29.80,18,1,18,0.22
2013-7-21,83.4,72.8,66.4,73.6,69.5,65.8,99,90,67,29.95,29.86,8,0,8,0.11
2013-7-22,77.9,71.3,68.4,73.6,69.8,67.5,99,95,82,29.92,29.74,10,0,10,0.92
2013-7-23,82.8,72.4,65.4,70.9,67.9,63.9,99,87,60,29.75,29.66,23,1,23,0.94
2013-8-1,78.6,70.1,62.2,67.6,64.3,60.8,97,83,64,29.89,29.83,5,0,8,0.00
2013-8-2,79.0,68.2,58.6,64.6,60.5,57.7,98,79,51,29.97,29.88,16,2,16,0.00
2013-8-3,70.3,66.8,63.9,66.7,64.0,61.8,98,91,77,29.97,29.91,10,0,10,0.18
2013-8-4,74.5,65.0,55.8,63.3,58.8,54.4,98,82,55,30.07,29.96,18,2,18,0.00
2013-8-5,75.7,62.6,53.1,61.1,55.7,52.0,98,81,47,30.13,30.01,9,1,9,0.00
2013-8-6,83.0,67.4,55.2,66.9,59.6,54.4,98,79,46,30.03,29.95,10,1,10,0.00
2013-8-7,87.3,70.8,60.9,74.4,65.9,59.8,98,86,57,30.02,29.87,16,1,16,1.30
2013-8-8,85.0,71.4,62.7,75.3,68.5,62.4,99,91,68,29.98,29.89,9,1,13,0.05
2013-8-9,81.6,72.4,69.4,73.7,70.7,68.9,99,95,73,29.98,29.86,14,1,18,1.01
2013-8-10,81.2,70.7,62.8,69.2,65.3,60.0,99,85,55,30.07,29.97,11,1,11,1.02
2013-8-11,84.7,71.1,62.4,71.1,65.5,61.8,99,84,53,30.10,29.97,9,1,9,0.00
2013-8-12,83.3,72.1,64.7,70.3,66.0,63.4,97,83,54,30.03,29.87,10,1,10,0.00
2013-8-13,77.8,69.1,60.4,70.7,64.5,51.6,98,86,65,29.92,29.76,16,2,16,0.62
2013-8-14,66.7,57.8,49.6,56.5,52.3,48.5,98,83,66,30.14,29.92,9,2,13,0.00
2013-8-15,75.6,60.4,50.7,59.7,53.4,50.1,98,81,45,30.22,30.08,8,1,8,0.00
2013-8-16,79.0,62.6,50.1,63.5,55.4,49.5,99,81,47,30.17,30.09,8,1,8,0.00
2013-8-17,75.5,62.9,51.6,62.3,56.6,51.0,99,82,54,30.25,30.17,15,1,15,0.00
2013-8-18,74.2,65.2,60.2,65.8,61.7,58.0,98,89,72,30.22,30.11,9,0,9,0.01
2013-8-19,78.3,67.4,61.7,69.5,64.7,60.8,98,92,70,30.14,30.04,8,1,8,0.18
2013-8-20,82.8,69.2,61.8,68.7,63.7,60.9,98,85,53,30.19,30.09,7,0,8,0.00
2013-8-21,82.6,67.5,58.8,72.9,64.4,58.3,99,90,68,30.20,30.06,12,1,14,0.66
2013-8-22,82.9,69.0,64.1,72.2,66.2,63.8,99,92,64,30.11,29.96,15,1,16,0.16
2013-8-23,65.9,64.4,63.9,65.6,64.0,63.3,99,99,98,30.06,29.96,6,0,8,1.11
2013-11-16,63.5,54.0,45.4,52.0,47.5,43.8,95,79,63,30.12,30.06,8,0,8,0.20
2013-11-17,62.8,51.5,40.1,58.3,49.6,38.6,98,93,80,30.09,29.59,26,0,28,0.24
2013-11-18,56.9,50.2,40.4,50.4,36.9,28.5,90,62,41,30.02,29.72,26,6,26,0.02
2013-11-19,40.4,35.2,26.2,29.2,26.6,23.5,90,71,61,30.43,30.02,19,3,21,0.00
2013-11-20,48.3,33.0,20.9,26.1,21.3,15.5,95,67,29,30.54,30.42,15,1,15,0.00
2013-11-21,53.3,37.6,22.8,39.7,31.1,20.5,94,78,54,30.53,30.33,4,0,4,0.00
2013-11-22,54.5,46.6,40.0,53.2,45.1,37.4,99,94,87,30.33,30.06,21,1,21,0.33
2013-11-23,39.9,32.6,21.3,37.4,25.8,10.7,91,76,58,30.34,30.11,23,5,23,0.00
2013-11-24,25.2,19.9,13.3,13.4,10.6,8.0,83,67,52,30.58,30.33,24,5,24,0.00
2013-11-25,42.4,26.1,9.9,26.4,12.6,5.8,91,63,22,30.58,30.30,8,0,13,0.02
2013-11-26,38.2,35.6,32.7,37.2,32.9,20.6,98,91,53,30.29,29.70,13,0,13,1.17
2013-11-27,36.8,30.1,23.4,36.1,26.4,15.7,98,86,71,30.15,29.69,22,5,22,0.01
2013-11-28,29.8,25.9,21.8,23.3,18.8,14.3,83,74,65,30.48,30.15,16,2,16,0.01
2013-11-29,37.0,29.3,20.2,24.5,22.3,18.3,93,76,56,30.70,30.48,12,1,12,0.04
2013-11-30,37.4,25.5,16.6,27.6,21.3,14.7,94,85,65,30.69,30.35,8,0,8,0.01
2013-12-1,48.4,33.5,19.7,35.1,28.0,18.2,95,82,51,30.35,30.03,12,1,12,0.00
2013-12-2,52.7,40.8,33.8,41.0,36.5,32.1,95,85,62,30.03,29.83,5,0,5,0.00
2013-12-3,58.7,41.0,32.9,44.3,36.5,31.3,97,86,51,29.98,29.86,6,0,6,0.00
2013-12-4,61.9,42.8,31.0,49.3,38.7,30.0,98,87,62,30.07,29.93,3,0,8,0.00
2013-12-5,57.4,49.3,41.2,56.8,47.8,40.0,99,95,84,30.01,29.90,18,1,18,0.72
2013-12-6,47.2,37.5,32.3,45.8,36.0,30.5,96,94,90,30.26,29.96,11,2,11,0.87
2013-12-7,32.3,29.0,24.5,30.7,25.0,19.9,95,85,76,30.59,30.23,12,3,12,0.01
2013-12-8,29.6,25.7,22.1,28.1,22.4,18.3,94,87,80,30.59,30.22,7,1,11,0.00
2013-12-9,39.1,34.3,29.6,38.1,32.0,27.9,99,91,80,30.22,30.07,15,2,16,0.35
2013-12-10,33.4,29.2,25.2,28.4,23.1,16.1,89,78,66,30.28,30.01,19,3,19,0.02
2013-12-11,34.6,27.3,21.8,23.8,17.6,13.2,83,67,47,30.42,30.28,19,3,19,0.00
2013-12-12,26.9,21.8,17.3,21.3,10.6,4.9,86,63,47,30.50,30.31,20,4,20,0.00
2013-12-13,38.3,27.7,21.6,22.2,15.7,8.2,87,62,46,30.33,30.24,17,2,17,0.00
2013-12-14,35.7,31.2,26.1,33.1,28.6,22.1,97,90,84,30.31,29.73,13,0,13,0.19
2013-12-15,38.9,31.7,27.6,38.4,28.1,22.2,99,86,78,30.01,29.66,23,4,23,0.13
2013-12-16,30.0,27.1,23.9,27.2,23.3,19.7,94,86,77,30.18,30.01,16,2,16,0.02
2013-12-17,36.2,31.9,28.5,33.9,29.4,25.3,97,91,79,30.11,29.97,18,1,18,0.14
2013-12-18,31.0,27.1,17.4,26.0,22.5,15.7,94,83,72,30.25,30.06,11,2,19,0.00
2013-12-19,56.9,34.8,15.9,38.6,27.4,14.2,95,78,48,30.19,30.09,16,2,21,0.23
2013-12-20,56.9,41.1,29.3,49.5,38.2,28.3,97,90,71,30.12,29.96,14,0,15,0.02
2013-12-21,62.5,51.5,44.7,57.8,50.3,43.9,98,96,83,29.98,29.75,13,0,13,0.14
2013-12-22,62.6,56.7,46.7,58.5,53.1,46.2,100,88,74,29.95,29.67,26,2,31,0.25
2013-12-23,52.7,41.4,31.4,51.3,38.2,24.1,98,89,72,30.28,29.92,19,2,19,0.13
2013-12-24,31.4,25.1,16.9,25.4,17.7,8.9,90,73,55,30.54,30.24,22,4,25,0.00
2013-12-25,34.9,22.2,11.8,22.3,15.5,9.2,91,76,51,30.57,30.30,8,0,8,0.00
2013-12-26,38.7,31.3,25.8,29.1,23.5,19.6,95,74,55,30.39,30.22,25,2,27,0.03
2013-12-27,45.6,30.1,18.4,26.6,21.2,16.3,96,74,34,30.42,30.34,20,1,20,0.00
2013-12-28,52.7,34.8,22.0,32.0,26.7,20.5,95,76,43,30.36,30.13,16,1,16,0.00
2013-12-29,42.7,37.7,31.9,42.1,36.1,29.3,98,94,90,30.13,29.65,14,1,17,0.91
2013-12-30,40.5,29.9,23.5,37.8,26.7,19.8,92,88,80,30.21,29.87,18,4,18,0.04
2013-12-31,28.7,26.4,23.9,25.1,21.5,17.5,92,82,71,30.36,30.12,12,3,20,0.00
2014-1-1,47.4,33.0,23.4,31.4,25.1,20.4,93,74,40,30.37,30.10,12,1,17,0.01
2014-1-2,33.2,27.5,16.2,31.1,25.5,11.9,96,92,83,30.10,29.67,14,1,14,0.00